Regional Weather Roundup
Issued by NWS

Home | Current Version | Previous Version | Text Only | Print | Product List | Glossary Off
Versions: 1 2 3 4 5 6 7 8 9 10 11 12 13 14 15 16 17 18 19 20 21 22 23 24 25 26 27 28 29 30 31 32 33 34 35 36 37 38 39 40 41 42 43 44 45 46 47 48 49 50

000
ASUS43 KDMX 180506
RWRIA

WEATHER ROUNDUP FOR IOWA
NATIONAL WEATHER SERVICE DES MOINES IA
1100 PM CST SAT FEB 17 2018

NOTE: "FAIR" INDICATES FEW OR NO CLOUDS BELOW 12,000 FEET WITH NO
SIGNIFICANT WEATHER AND/OR OBSTRUCTIONS TO VISIBILITY.

* - THESE STATIONS ARE NOT NWS STATIONS...THUS NOT UNDER NWS
QUALITY CONTROL.  THEY ALSO DO NOT REPORT WEATHER SUCH
AS PRECIPITATION OR FOG.

IAZ001>003-012>014-020>022-031>034-043>046-180600-
   NORTHWEST IOWA

CITY           SKY/WX    TMP DP  RH WIND       PRES   REMARKS
CARROLL *      CLEAR     27  25  93 CALM      30.12S
CHEROKEE *     CLOUDY    17  17 100 S3        30.08F
DENISON *      CLEAR     25  25 100 SE6       30.10F WCI  18
LE MARS *      CLOUDY    14  12  92 CALM      30.06F
ORANGE CITY *  CLOUDY    19  19 100 CALM      30.06S
SHELDON *      CLOUDY    12  12 100 SE7       30.03F FOG     WCI   2
SIOUX CITY     CLOUDY    19  19 100 SE5       30.08F WCI  12
SPENCER        CLOUDY    10   7  87 SW5       30.08S WCI   2
STORM LAKE *   CLEAR     18  18 100 SE7       30.08F WCI   8
$$

IAZ055>058-069>071-079>083-090>094-180600-
   SOUTHWEST IOWA

CITY           SKY/WX    TMP DP  RH WIND       PRES   REMARKS
ATLANTIC *     CLEAR     25  25 100 CALM      30.13F
AUDUBON *      CLOUDY    19  18  93 CALM      30.12F
CLARINDA *     CLEAR     23  23 100 CALM      30.17F
COUNCIL BLFS * CLEAR     28  28 100 SE7       30.10F WCI  21
CRESTON *      CLEAR     27  23  86 SE3       30.15F
HARLAN  *      CLEAR     25  25 100 CALM      30.14F
LAMONI         CLEAR     34  24  67 CALM      30.15F
RED OAK *      CLEAR     23  21  93 CALM      30.15S
SHENANDOAH *   CLEAR     28  25  86 CALM      30.15S
$$

IAZ047>049-059>061-072>074-084-180600-
   CENTRAL IOWA

CITY           SKY/WX    TMP DP  RH WIND       PRES   REMARKS
AMES           CLEAR     21  18  88 CALM      30.15S
ANKENY *       CLEAR     23  23 100 CALM      30.17F
BOONE *        CLEAR     25  25 100 W6        30.13F WCI  18
CHARITON *     CLEAR     27  23  86 N5        30.15F WCI  21
DES MOINES     CLEAR     26  22  84 S7        30.17R WCI  18
GRINNELL*      CLEAR     25  24  94 SW7       30.17S WCI  17
KNOXVILLE *    CLEAR     30  25  80 SW6       30.16S WCI  24
MARSHALLTOWN   CLEAR     20  19  96 W9        30.14R WCI   9
NEWTON *       CLEAR     27  25  93 SW5       30.17R WCI  21
PELLA *        CLEAR     29  25  84 SW3       30.18S
PERRY *        FAIR      26  25  96 S3        30.15F
$$

IAZ004>006-015-016-023>025-035-036-180600-
   NORTH CENTRAL IOWA

CITY           SKY/WX    TMP DP  RH WIND       PRES   REMARKS
ALGONA *       CLEAR     19 N/A N/A SW10      30.10R WCI   8
CLARION *      CLEAR     14  14 100 SW9       30.13R WCI   2
ESTHERVILLE    CLOUDY    17  14  88 SW9       30.06F WCI   6
FORT DODGE *   CLEAR     18  16  92 CALM      30.11F
MASON CITY     CLEAR     21  18  88 W9        30.10S WCI  11
FOREST CITY *  FAIR      14  12  92 CALM      30.08F
WEBSTER CITY * CLEAR     16  14  93 SW9       30.11F WCI   4
IOWA FALLS *   FAIR      18  16  93 SW10      30.14R WCI   6
$$

IAZ007>011-017>019-026>030-037>042-050>054-066-180600-
   NORTHEAST IOWA

CITY           SKY/WX    TMP DP  RH WIND       PRES   REMARKS
CEDAR RAPIDS   FAIR      20  17  88 SW3       30.15R FOG
CHARLES CITY *   N/A     23  23 100 W8        30.10S WCI  14
CLINTON *      MIX PCPN  15  13  91 SW9       30.16R VSB 1/4 WCI   3
DECORAH *      FAIR      21  21 100 NW5       30.09R WCI  15
DUBUQUE        FAIR      16  14  92 W10       30.11R FOG     WCI   4
MONTICELLO *   FAIR      18  18 100 CALM      30.14R FOG
OELWEIN *      FAIR      18  18 100 W8        30.11R WCI   7
WATERLOO       FAIR      19  17  92 SW6       30.13R WCI  11
$$

IAZ064-065-067-068-078-180600-
   EAST CENTRAL IOWA

CITY           SKY/WX    TMP DP  RH WIND       PRES   REMARKS
DAVENPORT      FAIR      18  15  88 W7        30.18R WCI   9
IOWA CITY      FOG       21  17  84 NW3       30.19S VSB 3/4
MT. PLEASANT * CLEAR     27  23  86 SW7       30.20R WCI  19
MUSCATINE *    FAIR      28  25  86 CALM      30.19S
QUAD CITIES    FAIR      15  13  91 S6        30.18R FOG     WCI   6
$$

IAZ062-063-075>077-085>089-095>099-180600-
   SOUTHEAST IOWA

CITY           SKY/WX    TMP DP  RH WIND       PRES   REMARKS
BURLINGTON     CLEAR     28  25  88 SW6       30.19R WCI  22
FAIRFIELD *    CLEAR     28  25  86 W6        30.18R WCI  22
FORT MADISON * CLEAR     28  27  93 SW5       30.21R WCI  23
KEOKUK *       CLEAR     27  27 100 CALM      30.20S
OSKALOOSA *    FAIR      27  24  87 W5        30.18S WCI  22
OTTUMWA        CLEAR     27  22  81 W5        30.18R WCI  22
WASHINGTON *   CLEAR     25  25 100 W8        30.20R WCI  16
$$

ABBREVIATIONS USED IN REMARKS
   TC - TEMPERATURES IN CELSIUS
  WCI - WIND CHILL INDEX
   HX - HEAT INDEX
  VSB - VISIBILITY
$$





USA.gov is the U.S. government's official web portal to all federal, state and local government web resources and services.